Location: Brabourne
(51.1333°N, 1.0000°E)
Time: 22:29:19
(UTC+00:00)

Exosat Rocket - Pass Details

Date: 20 June 2021
Orbit: 761 x 2514 km, 72.3° (Epoch: 01 August)

Event Time Altitude Azimuth Distance (km) Brightness Sun altitude
Exits shadow 01:31:00 15° 218° (SW) 2,452 5.5 -12.6°
Maximum altitude 01:36:12 68° 299° (WNW) 942 4.0 -12.3°
Drops below altitude 10° 01:41:20 10° 24° (NNE) 2,345 7.6 -12.0°
Sets 01:43:34 0° 27° (NNE) 3,241 8.9 -11.9°
